Northeast Philadelphia, PA

6:49 PM EDT on June 19, 2018 (GMT -0400)
Northeast Philadelphia

Weather History for KPNE - July, 2016

Change the Weather History Date:

Wednesday, July 27, 2016

  Actual Average Record
Temperature  
Mean Temperature 83 °F -  
Max Temperature 93 °F 83 °F 98 °F (2005)
Min Temperature 73 °F 65 °F 60 °F (2001)
Cooling Degree Days 18    
Growing Degree Days 33 (Base 50)    
Moisture  
Dew Point 67 °F    
Average Humidity 59    
Maximum Humidity 87    
Minimum Humidity 39    
Precipitation  
Precipitation 0.00 in - - ()
Sea Level Pressure  
Sea Level Pressure 29.94 in    
Wind  
Wind Speed 4 mph (ENE)    
Max Wind Speed 8 mph    
Max Gust Speed -    
Visibility 10 miles    
Events      
Averages and records for this station are not official NWS values.
T = Trace of Precipitation, MM = Missing Value Source: NWS Daily Summary

Daily Weather History Graph

Daily Weather History Graph

Search for Another Location

Airport or City:

Astronomy

Jul. 27, 2016 Rise Set
Actual Time 5:54 AM EDT 8:18 PM EDT
Civil Twilight 5:23 AM EDT 8:49 PM EDT
Nautical Twilight 4:45 AM EDT 9:27 PM EDT
Astronomical Twilight 4:02 AM EDT 10:09 PM EDT
Moon 12:31 AM EDT (7/27) 2:15 PM EDT (7/27)
Length of Visible Light 15h 25m
Length of Day
14h 24m
Last Quarter, 42% of the Moon is Illuminated
Jul 27
Last Quarter
Aug 2
New
Aug 10
First Quarter
Aug 18
Full
Aug 24
Last Quarter

Hourly Weather History & Observations

Time (EDT) Temp. Heat Index Dew Point Humidity Pressure Visibility Wind Dir Wind Speed Gust Speed Precip Events Conditions
12:54 AM 78.1 °F - 69.1 °F 74% 29.94 in 10.0 mi NE 4.6 mph - N/A   Clear
1:54 AM 75.9 °F - 68.0 °F 76% 29.95 in 10.0 mi Calm Calm - N/A   Clear
2:54 AM 77.0 °F - 66.9 °F 71% 29.94 in 10.0 mi NNE 4.6 mph - N/A   Partly Cloudy
3:54 AM 77.0 °F - 66.0 °F 69% 29.95 in 10.0 mi NNE 5.8 mph - N/A   Scattered Clouds
4:54 AM 75.9 °F - 66.0 °F 71% 29.95 in 10.0 mi NNE 3.5 mph - N/A   Clear
5:54 AM 73.9 °F - 66.0 °F 76% 29.96 in 10.0 mi NE 6.9 mph - N/A   Clear
6:54 AM 75.0 °F - 66.0 °F 73% 29.96 in 10.0 mi NE 5.8 mph - N/A   Clear
7:54 AM 79.0 °F - 66.0 °F 64% 29.97 in 10.0 mi NE 5.8 mph - N/A   Clear
8:54 AM 82.0 °F 84.1 °F 66.0 °F 58% 29.98 in 10.0 mi NE 5.8 mph - N/A   Clear
9:54 AM 84.0 °F 86.3 °F 66.0 °F 55% 29.97 in 10.0 mi East 6.9 mph - N/A   Clear
10:54 AM 86.0 °F 87.6 °F 64.9 °F 49% 29.97 in 10.0 mi SE 4.6 mph - N/A   Clear
11:54 AM 90.0 °F 92.4 °F 66.0 °F 45% 29.96 in 10.0 mi Variable 4.6 mph - N/A   Clear
12:54 PM 90.0 °F 91.7 °F 64.9 °F 43% 29.96 in 10.0 mi Calm Calm - N/A   Clear
1:54 PM 91.0 °F 93.8 °F 66.0 °F 44% 29.94 in 10.0 mi NNE 8.1 mph - N/A   Clear
2:54 PM 93.0 °F 95.9 °F 66.0 °F 41% 29.94 in 10.0 mi NNE 5.8 mph - N/A   Scattered Clouds
3:54 PM 93.0 °F 95.0 °F 64.9 °F 39% 29.92 in 10.0 mi NE 5.8 mph - N/A   Scattered Clouds
4:54 PM 91.9 °F 93.3 °F 64.0 °F 39% 29.91 in 10.0 mi Variable 4.6 mph - N/A   Scattered Clouds
5:54 PM 91.0 °F 92.6 °F 64.0 °F 41% 29.90 in 10.0 mi ESE 3.5 mph - N/A   Partly Cloudy
6:54 PM 89.1 °F 91.0 °F 64.9 °F 45% 29.89 in 10.0 mi SSE 4.6 mph - N/A   Clear
7:54 PM 88.0 °F 89.3 °F 64.0 °F 45% 29.91 in 10.0 mi East 3.5 mph - N/A   Partly Cloudy
8:54 PM 84.9 °F 87.6 °F 66.9 °F 55% 29.91 in 10.0 mi Calm Calm - N/A   Mostly Cloudy
9:54 PM 82.0 °F 87.4 °F 73.0 °F 74% 29.92 in 10.0 mi ESE 4.6 mph - N/A   Partly Cloudy
10:54 PM 82.0 °F 89.4 °F 75.9 °F 82% 29.92 in 10.0 mi SE 5.8 mph - N/A   Clear
11:54 PM 80.1 °F 85.4 °F 75.9 °F 87% 29.92 in 10.0 mi Calm Calm - N/A   Clear